Regional Weather Roundup
Issued by NWS

Home | Current Version | Previous Version | Text Only | Print | Product List | Glossary Off
Versions: 1 2 3 4 5 6 7 8 9 10 11 12 13 14 15 16 17 18 19 20 21 22 23 24 25 26 27 28

000
ASUS45 KBOI 230410
RWRID
WEATHER ROUNDUP FOR IDAHO
NATIONAL WEATHER SERVICE BOISE ID
1000 PM MDT TUE APR 22 2014

NOTE: "FAIR" INDICATES FEW OR NO CLOUDS BELOW 12000 FEET
WITH NO SIGNIFICANT WEATHER AND/OR OBSTRUCTIONS TO VISIBILITY

IDZ012-014-230500-
SOUTHWEST IDAHO


CITY           SKY/WX    TMP DP  RH WIND       PRES   REMARKS
BOISE          PTCLDY    44  33  65 W8        29.87R
CALDWELL       PTCLDY    43  28  56 W9        29.90R
MOUNTAIN HOME  PTCLDY    40  40  99 W13       29.87R WCI  33
$$

IDZ016-017-230500-
SOUTHCENTRAL IDAHO


CITY           SKY/WX    TMP DP  RH WIND       PRES   REMARKS
BURLEY         CLOUDY    36  34  92 SW15      29.79R WCI  27
JEROME         CLOUDY    40  37  89 W15       29.81R WCI  32
TWIN FALLS     CLOUDY    40  34  79 SW20G31   29.83R WCI  30
$$

IDZ019>023-230500-
SOUTHEAST IDAHO


CITY           SKY/WX    TMP DP  RH WIND       PRES   REMARKS
IDAHO FALLS    LGT RAIN  40  37  89 SW23      29.71R WCI  30
POCATELLO      CLOUDY    40  36  86 S18G26    29.77R WCI  31
REXBURG        CLOUDY    39  36  89 SW24G31   29.67R WCI  28
$$

IDZ006-010-011-018-031-032-230500-
CENTRAL IDAHO MOUNTAINS


CITY           SKY/WX    TMP DP  RH WIND       PRES   REMARKS
MCCALL         CLOUDY    32  26  78 CALM      29.82R
HAILEY         PTCLDY    37  36  93 SE12      29.72R WCI  30
STANLEY          N/A     31  29  92 CALM      29.76R
SALMON         CLOUDY    43  32  65 N5        29.71R
CHALLIS        LGT RAIN  39  35  86 NW10      29.71R WCI  32
$$

IDZ002-004-006-007-026-230500-
NORTHERN IDAHO


CITY           SKY/WX    TMP DP  RH WIND       PRES   REMARKS
LEWISTON       MOCLDY    49  26  41 W6        29.84R
LOWELL         NOT AVBL
COEUR D`ALENE  MOCLDY    43  34  70 S9        29.77R
MULLAN PASS    CLOUDY    27  25  92 VRB5      29.73R WCI  22
$$



USA.gov is the U.S. government's official web portal to all federal, state and local government web resources and services.